Time,TemperatureF,DewpointF,PressureIn,WindDirection,WindDirectionDegrees,WindSpeedMPH,WindSpeedGustMPH,Humidity,HourlyPrecipIn,Conditions,Clouds,dailyrainin,SoftwareType,DateUTC
2013-01-19 00:04:00,71.0,-99.9,30.19,ENE,72,17.0,21.0,-999,-99.99,,,-99.99,,2013-01-19 05:04:00,
2013-01-19 00:13:00,71.0,-99.9,30.19,ENE,74,15.0,21.0,-999,-99.99,,,-99.99,,2013-01-19 05:13:00,
2013-01-19 00:23:00,71.0,-99.9,30.19,East,81,17.0,20.0,-999,-99.99,,,-99.99,,2013-01-19 05:23:00,
2013-01-19 00:33:00,71.0,-99.9,30.18,ENE,75,16.0,20.0,-999,-99.99,,,-99.99,,2013-01-19 05:33:00,
2013-01-19 00:43:00,71.0,-99.9,30.18,East,84,15.0,21.0,-999,-99.99,,,-99.99,,2013-01-19 05:43:00,
2013-01-19 00:53:00,71.0,-99.9,30.18,East,93,16.0,20.0,-999,-99.99,,,-99.99,,2013-01-19 05:53:00,
2013-01-19 01:03:00,71.0,-99.9,30.18,East,93,16.0,19.0,-999,-99.99,,,-99.99,,2013-01-19 06:03:00,
2013-01-19 01:12:00,71.0,-99.9,30.18,East,83,14.0,17.0,-999,-99.99,,,-99.99,,2013-01-19 06:12:00,
2013-01-19 01:23:00,71.0,-99.9,30.18,East,91,17.0,19.0,-999,-99.99,,,-99.99,,2013-01-19 06:23:00,
2013-01-19 01:33:00,71.0,-99.9,30.17,ESE,102,15.0,17.0,-999,-99.99,,,-99.99,,2013-01-19 06:33:00,
2013-01-19 01:43:00,71.0,-99.9,30.17,East,83,15.0,17.0,-999,-99.99,,,-99.99,,2013-01-19 06:43:00,
2013-01-19 01:53:00,72.0,-99.9,30.17,East,87,13.0,15.0,-999,-99.99,,,-99.99,,2013-01-19 06:53:00,
2013-01-19 02:02:00,72.0,-99.9,30.16,East,93,13.0,14.0,-999,-99.99,,,-99.99,,2013-01-19 07:02:00,
2013-01-19 02:12:00,71.0,-99.9,30.16,East,81,12.0,15.0,-999,-99.99,,,-99.99,,2013-01-19 07:12:00,
2013-01-19 02:23:00,72.0,-99.9,30.16,ENE,77,11.0,13.0,-999,-99.99,,,-99.99,,2013-01-19 07:23:00,
2013-01-19 02:33:00,72.0,-99.9,30.16,East,88,11.0,17.0,-999,-99.99,,,-99.99,,2013-01-19 07:33:00,
2013-01-19 02:43:00,71.0,-99.9,30.15,East,87,13.0,16.0,-999,-99.99,,,-99.99,,2013-01-19 07:43:00,
2013-01-19 02:53:00,72.0,-99.9,30.15,East,80,12.0,15.0,-999,-99.99,,,-99.99,,2013-01-19 07:53:00,
2013-01-19 03:03:00,72.0,-99.9,30.15,ENE,70,12.0,15.0,-999,-99.99,,,-99.99,,2013-01-19 08:03:00,
2013-01-19 03:12:00,71.0,-99.9,30.15,East,90,12.0,13.0,-999,-99.99,,,-99.99,,2013-01-19 08:12:00,
2013-01-19 03:22:00,72.0,-99.9,30.14,ENE,72,12.0,15.0,-999,-99.99,,,-99.99,,2013-01-19 08:22:00,
2013-01-19 03:33:00,72.0,-99.9,30.14,ENE,78,10.0,15.0,-999,-99.99,,,-99.99,,2013-01-19 08:33:00,
2013-01-19 03:43:00,72.0,-99.9,30.15,East,88,10.0,14.0,-999,-99.99,,,-99.99,,2013-01-19 08:43:00,
2013-01-19 03:53:00,72.0,-99.9,30.14,ENE,74,10.0,14.0,-999,-99.99,,,-99.99,,2013-01-19 08:53:00,
2013-01-19 04:03:00,72.0,-99.9,30.15,ENE,78,12.0,14.0,-999,-99.99,,,-99.99,,2013-01-19 09:03:00,
2013-01-19 04:12:00,72.0,-99.9,30.15,East,87,11.0,16.0,-999,-99.99,,,-99.99,,2013-01-19 09:12:00,
2013-01-19 04:23:00,72.0,-99.9,30.15,East,89,13.0,17.0,-999,-99.99,,,-99.99,,2013-01-19 09:23:00,
2013-01-19 04:33:00,72.0,-99.9,30.14,East,87,9.0,14.0,-999,-99.99,,,-99.99,,2013-01-19 09:33:00,
2013-01-19 04:43:00,72.0,-99.9,30.14,East,82,10.0,14.0,-999,-99.99,,,-99.99,,2013-01-19 09:43:00,
2013-01-19 04:53:00,72.0,-99.9,30.14,ENE,73,9.0,14.0,-999,-99.99,,,-99.99,,2013-01-19 09:53:00,
2013-01-19 05:02:00,72.0,-99.9,30.14,ENE,72,11.0,14.0,-999,-99.99,,,-99.99,,2013-01-19 10:02:00,
2013-01-19 05:13:00,72.0,-99.9,30.14,ENE,69,12.0,14.0,-999,-99.99,,,-99.99,,2013-01-19 10:13:00,
2013-01-19 05:23:00,72.0,-99.9,30.14,East,80,13.0,16.0,-999,-99.99,,,-99.99,,2013-01-19 10:23:00,
2013-01-19 05:33:00,72.0,-99.9,30.14,ENE,75,11.0,13.0,-999,-99.99,,,-99.99,,2013-01-19 10:33:00,
2013-01-19 05:43:00,72.0,-99.9,30.15,ENE,60,13.0,14.0,-999,-99.99,,,-99.99,,2013-01-19 10:43:00,
2013-01-19 05:53:00,72.0,-99.9,30.14,NE,54,14.0,16.0,-999,-99.99,,,-99.99,,2013-01-19 10:53:00,
2013-01-19 06:03:00,73.0,-99.9,30.14,ENE,73,11.0,16.0,-999,-99.99,,,-99.99,,2013-01-19 11:03:00,
2013-01-19 06:13:00,73.0,-99.9,30.14,ENE,70,11.0,14.0,-999,-99.99,,,-99.99,,2013-01-19 11:13:00,
2013-01-19 06:48:00,73.0,-99.9,30.16,ENE,67,11.0,16.0,-999,-99.99,,,-99.99,,2013-01-19 11:48:00,
2013-01-19 07:48:00,73.0,-99.9,30.17,ENE,77,11.0,13.0,-999,-99.99,,,-99.99,,2013-01-19 12:48:00,
2013-01-19 08:03:00,73.0,-99.9,30.17,NE,53,13.0,15.0,-999,-99.99,,,-99.99,,2013-01-19 13:03:00,
2013-01-19 08:13:00,73.0,-99.9,30.17,NE,51,13.0,16.0,-999,-99.99,,,-99.99,,2013-01-19 13:13:00,
2013-01-19 08:23:00,73.0,-99.9,30.18,ENE,62,11.0,14.0,-999,-99.99,,,-99.99,,2013-01-19 13:23:00,
2013-01-19 08:34:00,73.0,-99.9,30.17,NE,47,13.0,17.0,-999,-99.99,,,-99.99,,2013-01-19 13:34:00,
2013-01-19 08:43:00,73.0,-99.9,30.18,ENE,60,15.0,17.0,-999,-99.99,,,-99.99,,2013-01-19 13:43:00,
2013-01-19 08:54:00,73.0,-99.9,30.19,ENE,65,13.0,15.0,-999,-99.99,,,-99.99,,2013-01-19 13:54:00,
2013-01-19 09:03:00,73.0,-99.9,30.19,ENE,68,16.0,19.0,-999,-99.99,,,-99.99,,2013-01-19 14:03:00,
2013-01-19 09:13:00,73.0,-99.9,30.19,ENE,63,15.0,18.0,-999,-99.99,,,-99.99,,2013-01-19 14:13:00,
2013-01-19 09:23:00,73.0,-99.9,30.19,ENE,64,15.0,17.0,-999,-99.99,,,-99.99,,2013-01-19 14:23:00,
2013-01-19 09:34:00,73.0,-99.9,30.19,ENE,74,15.0,18.0,-999,-99.99,,,-99.99,,2013-01-19 14:34:00,
2013-01-19 09:43:00,74.0,-99.9,30.20,ENE,63,15.0,17.0,-999,-99.99,,,-99.99,,2013-01-19 14:43:00,
2013-01-19 09:54:00,73.0,-99.9,30.21,ENE,77,15.0,17.0,-999,-99.99,,,-99.99,,2013-01-19 14:54:00,
2013-01-19 10:03:00,73.0,-99.9,30.21,East,80,16.0,18.0,-999,-99.99,,,-99.99,,2013-01-19 15:03:00,
2013-01-19 10:13:00,71.0,-99.9,30.22,East,91,12.0,21.0,-999,-99.99,,,-99.99,,2013-01-19 15:13:00,
2013-01-19 10:23:00,71.0,-99.9,30.22,ENE,71,13.0,17.0,-999,-99.99,,,-99.99,,2013-01-19 15:23:00,
2013-01-19 10:34:00,68.0,-99.9,30.23,ENE,59,9.0,19.0,-999,-99.99,,,-99.99,,2013-01-19 15:34:00,
2013-01-19 10:43:00,69.0,-99.9,30.22,ENE,60,13.0,15.0,-999,-99.99,,,-99.99,,2013-01-19 15:43:00,
2013-01-19 10:53:00,69.0,-99.9,30.22,ENE,61,13.0,16.0,-999,-99.99,,,-99.99,,2013-01-19 15:53:00,
2013-01-19 11:04:00,69.0,-99.9,30.22,NE,36,6.0,9.0,-999,-99.99,,,-99.99,,2013-01-19 16:04:00,
2013-01-19 11:13:00,69.0,-99.9,30.22,ENE,65,6.0,9.0,-999,-99.99,,,-99.99,,2013-01-19 16:13:00,
2013-01-19 11:23:00,69.0,-99.9,30.22,ENE,68,4.0,7.0,-999,-99.99,,,-99.99,,2013-01-19 16:23:00,
2013-01-19 11:34:00,69.0,-99.9,30.21,East,83,6.0,9.0,-999,-99.99,,,-99.99,,2013-01-19 16:34:00,
2013-01-19 11:43:00,68.0,-99.9,30.21,NW,306,7.0,9.0,-999,-99.99,,,-99.99,,2013-01-19 16:43:00,
2013-01-19 11:54:00,68.0,-99.9,30.21,NNW,347,8.0,9.0,-999,-99.99,,,-99.99,,2013-01-19 16:54:00,
2013-01-19 12:03:00,68.0,-99.9,30.20,WNW,298,6.0,10.0,-999,-99.99,,,-99.99,,2013-01-19 17:03:00,
2013-01-19 12:23:00,68.0,-99.9,30.20,West,281,6.0,9.0,-999,-99.99,,,-99.99,,2013-01-19 17:23:00,
2013-01-19 12:29:00,68.0,-99.9,30.19,West,265,3.0,7.0,-999,-99.99,,,-99.99,,2013-01-19 17:29:00,
2013-01-19 12:38:00,68.0,-99.9,30.19,NW,304,6.0,8.0,-999,-99.99,,,-99.99,,2013-01-19 17:38:00,
2013-01-19 12:50:00,68.0,-99.9,30.18,WNW,299,8.0,9.0,-999,-99.99,,,-99.99,,2013-01-19 17:50:00,
2013-01-19 12:55:00,68.0,-99.9,30.18,NW,311,4.0,9.0,-999,-99.99,,,-99.99,,2013-01-19 17:55:00,
2013-01-19 13:13:00,68.0,-99.9,30.18,North,354,2.0,3.0,-999,-99.99,,,-99.99,,2013-01-19 18:13:00,
2013-01-19 13:29:00,67.0,-99.9,30.16,South,182,2.0,3.0,-999,-99.99,,,-99.99,,2013-01-19 18:29:00,
2013-01-19 13:39:00,68.0,-99.9,30.16,South,186,2.0,8.0,-999,-99.99,,,-99.99,,2013-01-19 18:39:00,
2013-01-19 13:48:00,68.0,-99.9,30.15,WSW,241,3.0,5.0,-999,-99.99,,,-99.99,,2013-01-19 18:48:00,
2013-01-19 14:04:00,68.0,-99.9,30.14,WSW,255,2.0,5.0,-999,-99.99,,,-99.99,,2013-01-19 19:04:00,
2013-01-19 14:10:00,68.0,-99.9,30.14,WSW,240,2.0,4.0,-999,-99.99,,,-99.99,,2013-01-19 19:10:00,
2013-01-19 14:23:00,69.0,-99.9,30.14,NW,310,5.0,6.0,-999,-99.99,,,-99.99,,2013-01-19 19:23:00,
2013-01-19 14:32:00,69.0,-99.9,30.13,NW,324,4.0,6.0,-999,-99.99,,,-99.99,,2013-01-19 19:32:00,
2013-01-19 14:40:00,69.0,-99.9,30.13,NW,319,1.0,2.0,-999,-99.99,,,-99.99,,2013-01-19 19:40:00,
2013-01-19 14:50:00,70.0,-99.9,30.13,NW,320,-999.0,2.0,-999,-99.99,,,-99.99,,2013-01-19 19:50:00,
2013-01-19 14:59:00,70.0,-99.9,30.12,East,93,2.0,4.0,-999,-99.99,,,-99.99,,2013-01-19 19:59:00,
2013-01-19 15:12:00,69.0,-99.9,30.12,NE,43,7.0,11.0,-999,-99.99,,,-99.99,,2013-01-19 20:12:00,
2013-01-19 15:20:00,68.0,-99.9,30.13,East,82,5.0,9.0,-999,-99.99,,,-99.99,,2013-01-19 20:20:00,
2013-01-19 15:28:00,68.0,-99.9,30.13,East,94,1.0,6.0,-999,-99.99,,,-99.99,,2013-01-19 20:28:00,
2013-01-19 15:40:00,68.0,-99.9,30.13,SE,130,2.0,4.0,-999,-99.99,,,-99.99,,2013-01-19 20:40:00,
2013-01-19 15:51:00,68.0,-99.9,30.12,East,93,4.0,10.0,-999,-99.99,,,-99.99,,2013-01-19 20:51:00,
2013-01-19 15:59:00,70.0,-99.9,30.12,East,81,11.0,15.0,-999,-99.99,,,-99.99,,2013-01-19 20:59:00,
2013-01-19 16:09:00,70.0,-99.9,30.12,ENE,77,16.0,19.0,-999,-99.99,,,-99.99,,2013-01-19 21:09:00,
2013-01-19 16:15:00,69.0,-99.9,30.12,ENE,69,13.0,16.0,-999,-99.99,,,-99.99,,2013-01-19 21:15:00,
2013-01-19 16:55:00,71.0,-99.9,30.11,NNE,32,7.0,9.0,-999,-99.99,,,-99.99,,2013-01-19 21:55:00,
2013-01-19 17:03:00,71.0,-99.9,30.11,NE,38,6.0,8.0,-999,-99.99,,,-99.99,,2013-01-19 22:03:00,
2013-01-19 17:20:00,71.0,-99.9,30.11,NE,42,2.0,4.0,-999,-99.99,,,-99.99,,2013-01-19 22:20:00,
2013-01-19 17:29:00,71.0,-99.9,30.11,NNE,17,2.0,4.0,-999,-99.99,,,-99.99,,2013-01-19 22:29:00,
2013-01-19 17:49:00,70.0,-99.9,30.11,ENE,57,5.0,7.0,-999,-99.99,,,-99.99,,2013-01-19 22:49:00,
2013-01-19 17:59:00,70.0,-99.9,30.11,ESE,102,4.0,6.0,-999,-99.99,,,-99.99,,2013-01-19 22:59:00,
2013-01-19 18:14:00,70.0,-99.9,30.12,East,84,3.0,6.0,-999,-99.99,,,-99.99,,2013-01-19 23:14:00,
2013-01-19 18:29:00,70.0,-99.9,30.12,North,355,3.0,5.0,-999,-99.99,,,-99.99,,2013-01-19 23:29:00,
2013-01-19 18:35:00,69.0,-99.9,30.12,NW,312,6.0,6.0,-999,-99.99,,,-99.99,,2013-01-19 23:35:00,
2013-01-19 19:08:00,70.0,-99.9,30.13,ESE,108,9.0,11.0,-999,-99.99,,,-99.99,,2013-01-20 00:08:00,
2013-01-19 19:17:00,70.0,-99.9,30.13,East,97,9.0,11.0,-999,-99.99,,,-99.99,,2013-01-20 00:17:00,
2013-01-19 19:26:00,70.0,-99.9,30.14,East,83,5.0,8.0,-999,-99.99,,,-99.99,,2013-01-20 00:26:00,
2013-01-19 19:48:00,69.0,-99.9,30.14,NW,317,3.0,4.0,-999,-99.99,,,-99.99,,2013-01-20 00:48:00,
2013-01-19 19:58:00,69.0,-99.9,30.14,WNW,296,3.0,5.0,-999,-99.99,,,-99.99,,2013-01-20 00:58:00,
2013-01-19 20:05:00,69.0,-99.9,30.14,NW,310,4.0,5.0,-999,-99.99,,,-99.99,,2013-01-20 01:05:00,
2013-01-19 20:28:00,69.0,-99.9,30.14,NW,323,4.0,6.0,-999,-99.99,,,-99.99,,2013-01-20 01:28:00,
2013-01-19 20:39:00,68.0,-99.9,30.14,NW,317,6.0,10.0,-999,-99.99,,,-99.99,,2013-01-20 01:39:00,
2013-01-19 20:53:00,68.0,-99.9,30.14,NW,317,5.0,6.0,-999,-99.99,,,-99.99,,2013-01-20 01:53:00,
2013-01-19 21:05:00,68.0,-99.9,30.14,NW,319,6.0,8.0,-999,-99.99,,,-99.99,,2013-01-20 02:05:00,
2013-01-19 21:16:00,68.0,-99.9,30.14,NW,321,7.0,8.0,-999,-99.99,,,-99.99,,2013-01-20 02:16:00,
2013-01-19 21:28:00,68.0,-99.9,30.14,NNW,332,6.0,10.0,-999,-99.99,,,-99.99,,2013-01-20 02:28:00,
2013-01-19 21:38:00,67.0,-99.9,30.14,NNW,335,8.0,9.0,-999,-99.99,,,-99.99,,2013-01-20 02:38:00,
2013-01-19 21:46:00,68.0,-99.9,30.14,NNW,337,6.0,8.0,-999,-99.99,,,-99.99,,2013-01-20 02:46:00,
2013-01-19 22:00:00,68.0,-99.9,30.14,NNW,339,8.0,9.0,-999,-99.99,,,-99.99,,2013-01-20 03:00:00,
2013-01-19 22:09:00,68.0,-99.9,30.14,NW,321,7.0,9.0,-999,-99.99,,,-99.99,,2013-01-20 03:09:00,
2013-01-19 22:15:00,67.0,-99.9,30.14,WNW,301,5.0,8.0,-999,-99.99,,,-99.99,,2013-01-20 03:15:00,
2013-01-19 22:27:00,67.0,-99.9,30.13,NW,308,5.0,7.0,-999,-99.99,,,-99.99,,2013-01-20 03:27:00,
2013-01-19 22:40:00,67.0,-99.9,30.13,WNW,284,4.0,6.0,-999,-99.99,,,-99.99,,2013-01-20 03:40:00,
2013-01-19 22:48:00,67.0,-99.9,30.13,WNW,300,5.0,6.0,-999,-99.99,,,-99.99,,2013-01-20 03:48:00,
2013-01-19 22:59:00,67.0,-99.9,30.13,WNW,296,6.0,7.0,-999,-99.99,,,-99.99,,2013-01-20 03:59:00,
2013-01-19 23:05:00,67.0,-99.9,30.13,WNW,298,6.0,8.0,-999,-99.99,,,-99.99,,2013-01-20 04:05:00,
2013-01-19 23:16:00,67.0,-99.9,30.12,WNW,303,7.0,8.0,-999,-99.99,,,-99.99,,2013-01-20 04:16:00,
2013-01-19 23:28:00,67.0,-99.9,30.12,WNW,303,6.0,8.0,-999,-99.99,,,-99.99,,2013-01-20 04:28:00,
2013-01-19 23:38:00,67.0,-99.9,30.11,NW,309,6.0,8.0,-999,-99.99,,,-99.99,,2013-01-20 04:38:00,
2013-01-19 23:45:00,67.0,-99.9,30.11,WNW,293,5.0,7.0,-999,-99.99,,,-99.99,,2013-01-20 04:45:00,
2013-01-19 23:59:00,67.0,-99.9,30.11,WNW,297,6.0,7.0,-999,-99.99,,,-99.99,,2013-01-20 04:59:00,